Home > Weather > State College > Past weeks

Flag for USA Past Weather in State College, Pennsylvania, USA — Yesterday and Last 2 Weeks

Now
86 °F

Scattered clouds.


Feels Like: 89 °F
Forecast: 64 / 86 °F
Wind: No wind

Location: University Park Airport

Current Time: May 28, 2016 at 4:21:02 PM

Latest Report: May 28, 2016 at 3:53 PM


Visibility: 10 mi

Pressure: 30.12 "Hg

Humidity: 55%

Dew Point: 68 °F

Location of State CollegeLocation

Past Weather in State College — Graph

°F

State College Temperature Yesterday

Maximum temperature yesterday: 86 °F (at 4:53 PM)
Minimum temperature yesterday: 64 °F (at 5:15 AM)
Average temperature yesterday: 71 °F

High & Low Weather Summary for the Past Weeks

 TemperatureHumidityPressure
High86 °F (May 27, 4:53 PM)100% (May 19, 5:53 AM)30.31 "Hg (May 19, 5:53 AM)
Low36 °F (May 16, 5:15 AM)29% (May 24, 7:53 PM)29.65 "Hg (May 14, 2:53 PM)
Average57 °F71%30.05 "Hg
* Reported May 13 2:53 PM — May 28 2:53 PM, State College, Weather by CustomWeather, © 2016

Note: Actual official high and low records may vary slightly from our data, if they occured in-between our weather recording intervals... More about our weather records

Advertising

State College Weather History for the Previous 24 Hours

Scroll right to see more
 ConditionsComfort  
Time TempWeatherWind HumidityBarometerVisibility
2:53 PM
Sat, May 28
81 °FScattered clouds.No wind62%30.13 "Hg10 mi
1:53 PM81 °FPartly sunny.6 mph66%30.15 "Hg10 mi
12:53 PM84 °FPartly sunny.6 mph48%30.15 "Hg10 mi
11:53 AM82 °FScattered clouds.No wind62%30.16 "Hg10 mi
10:53 AM81 °FSunny.No wind66%30.16 "Hg10 mi
9:53 AM77 °FSunny.No wind69%30.17 "Hg10 mi
8:53 AM72 °FSunny.No wind83%30.17 "Hg10 mi
7:53 AM68 °FSunny.No wind88%30.16 "Hg10 mi
6:53 AM64 °FSunny.No wind94%30.15 "Hg10 mi
5:53 AM63 °FClear.No wind100%30.13 "Hg10 mi
5:35 AM64 °FFog.No wind98%30.13 "Hg5 mi
5:15 AM63 °FFog.No wind98%30.12 "Hg1 mi
4:55 AM64 °FFog.No wind97%30.12 "Hg2 mi
4:35 AM64 °FClear.No wind95%30.11 "Hg7 mi
4:15 AM65 °FClear.No wind96%30.11 "Hg10 mi
3:55 AM65 °FClear.No wind95%30.11 "Hg10 mi
3:35 AM65 °FClear.No wind95%30.10 "Hg10 mi
3:15 AM66 °FClear.No wind92%30.10 "Hg10 mi
2:55 AM67 °FClear.5 mph90%30.10 "Hg10 mi
2:35 AM66 °FClear.3 mph91%30.09 "Hg10 mi
2:15 AM68 °FClear.5 mph88%30.10 "Hg10 mi
1:55 AM68 °FClear.No wind88%30.10 "Hg10 mi
1:35 AM67 °FClear.5 mph90%30.10 "Hg10 mi
1:15 AM69 °FClear.7 mph86%30.10 "Hg10 mi
12:55 AM67 °FClear.5 mph90%30.10 "Hg10 mi
12:15 AM70 °FClear.7 mph84%30.10 "Hg10 mi
11:55 PM
Fri, May 27
71 °FClear.7 mph82%30.10 "Hg10 mi
11:35 PM70 °FClear.5 mph84%30.09 "Hg10 mi
11:15 PM70 °FClear.3 mph84%30.09 "Hg10 mi
10:55 PM72 °FClear.5 mph79%30.09 "Hg10 mi
10:35 PM72 °FClear.6 mph79%30.09 "Hg10 mi
10:15 PM72 °FClear.6 mph76%30.09 "Hg10 mi
9:55 PM72 °FClear.5 mph75%30.08 "Hg10 mi
8:53 PM73 °FSunny.5 mph74%30.07 "Hg10 mi
7:53 PM77 °FScattered clouds.6 mph65%30.05 "Hg10 mi
6:53 PM81 °FSunny.9 mph58%30.04 "Hg10 mi
5:53 PM81 °FScattered clouds.9 mph58%30.03 "Hg10 mi
4:53 PM86 °FScattered clouds.6 mph49%30.04 "Hg10 mi
Weather by CustomWeather, © 2016

See weather overviewHow to use our weather pages